Location: Cahas Mountain Overlook
(37.0833°N, 80.1000°W)
Time: 14:53:32
(UTC-05:00)

Tiangong - Visible Passes

Search period start: 18 January 2026 00:00
Search period end: 28 January 2026 00:00
Orbit: 378 x 393 km, 41.5° (Epoch: 18 January)

Date Brightness Start Highest point End Pass type
(mag) Time Alt. Az. Time Alt. Az. Time Alt. Az.
18 Jan -2.0 06:20:51 20° WSW 06:22:55 74° SSE 06:26:06 10° ENE visible
19 Jan 0.0 05:24:50 28° ESE 05:24:50 28° ESE 05:26:42 10° E visible
19 Jan -1.7 06:57:26 10° W 07:00:31 47° NNW 07:03:38 10° ENE visible
20 Jan -2.2 06:00:51 63° NW 06:01:06 67° NNW 06:04:17 10° ENE visible
21 Jan 1.2 05:04:29 13° ENE 05:04:29 13° ENE 05:04:53 10° ENE visible
21 Jan -1.3 06:36:43 17° WNW 06:38:45 38° N 06:41:45 10° ENE visible
22 Jan -0.7 05:40:13 33° NE 05:40:13 33° NE 05:42:18 10° ENE visible
23 Jan -1.2 06:15:51 27° NW 06:16:50 35° N 06:19:48 10° ENE visible
24 Jan 0.5 05:19:11 18° NE 05:19:11 18° NE 05:20:12 10° ENE visible
24 Jan -1.4 06:51:24 10° WNW 06:54:25 43° N 06:57:29 10° E visible
25 Jan -1.2 05:54:41 36° N 05:54:46 36° N 05:57:45 10° ENE visible
26 Jan 1.4 04:57:56 11° ENE 04:57:56 11° ENE 04:58:01 10° ENE visible
26 Jan -1.9 06:30:09 19° WNW 06:32:13 60° NNE 06:35:22 10° E visible
27 Jan -0.7 05:33:22 34° NE 05:33:22 34° NE 05:35:36 10° E visible
